CGMPW KDAY-KLCK

Flight info

Callsign CGMPW
Flight time 0h 25m
Altitude 13000
Route WIPOT
Aircraft PC24/L-SBDGIRWY/LB2

Departure

Time 2026-05-04 10:30
Airport James M. Cox Dayton International Airport (KDAY)

Arrival

Time 2026-05-04 10:56
Airport Rickenbacker International Airport (KLCK)
Time Latitude Longitude Altitude Speed Heading
2026-05-04 10:16 39.90758 -84.23681 999 ft 0 kts 327°
2026-05-04 10:25 39.90783 -84.23630 998 ft 18 kts 105°
2026-05-04 10:25 39.90690 -84.23580 999 ft 15 kts 150°
2026-05-04 10:25 39.90611 -84.23505 1001 ft 13 kts 143°
2026-05-04 10:26 39.90563 -84.23420 1001 ft 13 kts 102°
2026-05-04 10:26 39.90583 -84.23296 1000 ft 16 kts 65°
2026-05-04 10:26 39.90635 -84.23163 1001 ft 17 kts 61°
2026-05-04 10:26 39.90699 -84.23017 1001 ft 19 kts 60°
2026-05-04 10:27 39.90758 -84.22859 1005 ft 19 kts 62°
2026-05-04 10:27 39.90824 -84.22706 1005 ft 20 kts 61°
2026-05-04 10:27 39.90892 -84.22551 1006 ft 20 kts 64°
2026-05-04 10:27 39.90951 -84.22382 1002 ft 22 kts 65°
2026-05-04 10:28 39.91017 -84.22201 1001 ft 22 kts 60°
2026-05-04 10:28 39.91104 -84.22026 999 ft 23 kts 57°
2026-05-04 10:28 39.91188 -84.21857 1003 ft 21 kts 57°
2026-05-04 10:28 39.91268 -84.21700 1003 ft 20 kts 52°
2026-05-04 10:29 39.91323 -84.21603 1005 ft 5 kts 58°
2026-05-04 10:29 39.91319 -84.21524 1005 ft 16 kts 122°
2026-05-04 10:29 39.91221 -84.21459 1003 ft 16 kts 182°
2026-05-04 10:29 39.91131 -84.21561 1001 ft 35 kts 235°
2026-05-04 10:30 39.90810 -84.22159 1005 ft 122 kts 235°
2026-05-04 10:30 39.90204 -84.23248 1480 ft 158 kts 232°
2026-05-04 10:30 39.89543 -84.24446 2779 ft 172 kts 236°
2026-05-04 10:30 39.88754 -84.25762 3781 ft 203 kts 234°
2026-05-04 10:31 39.87763 -84.27357 4353 ft 247 kts 234°
2026-05-04 10:31 39.86597 -84.29236 4899 ft 286 kts 233°
2026-05-04 10:32 39.79464 -84.28308 7408 ft 225 kts 91°
2026-05-04 10:33 39.79522 -84.26330 7831 ft 213 kts 88°
2026-05-04 10:33 39.79591 -84.24446 8251 ft 203 kts 86°
2026-05-04 10:33 39.79682 -84.22656 8670 ft 194 kts 86°
2026-05-04 10:33 39.79768 -84.20952 9088 ft 183 kts 85°
2026-05-04 10:34 39.79821 -84.19878 9362 ft 176 kts 86°
2026-05-04 10:34 39.79924 -84.17733 9953 ft 195 kts 85°
2026-05-04 10:34 39.80015 -84.15832 10487 ft 215 kts 85°
2026-05-04 10:34 39.80074 -84.14577 10796 ft 206 kts 85°
2026-05-04 10:35 39.80158 -84.12769 11215 ft 194 kts 84°
2026-05-04 10:35 39.80238 -84.11068 11611 ft 183 kts 84°
2026-05-04 10:35 39.80318 -84.09420 12028 ft 191 kts 83°
2026-05-04 10:35 39.80408 -84.07574 12570 ft 218 kts 84°
2026-05-04 10:36 39.80507 -84.05496 13161 ft 244 kts 83°
2026-05-04 10:36 39.80620 -84.03107 13268 ft 286 kts 84°
2026-05-04 10:36 39.80746 -84.00375 13220 ft 320 kts 84°
2026-05-04 10:36 39.80884 -83.97329 13153 ft 353 kts 84°
2026-05-04 10:37 39.81030 -83.94099 13062 ft 366 kts 85°
2026-05-04 10:37 39.81180 -83.90781 13030 ft 369 kts 85°
2026-05-04 10:37 39.81331 -83.87448 13026 ft 369 kts 85°
2026-05-04 10:37 39.81483 -83.84118 13025 ft 369 kts 85°
2026-05-04 10:39 39.82361 -83.64160 13019 ft 368 kts 85°
2026-05-04 10:39 39.82500 -83.60842 13016 ft 367 kts 85°
2026-05-04 10:39 39.82643 -83.57560 13013 ft 367 kts 85°
2026-05-04 10:40 39.82789 -83.54198 13011 ft 367 kts 85°
2026-05-04 10:40 39.82944 -83.50929 13002 ft 365 kts 82°
2026-05-04 10:40 39.83458 -83.47706 12996 ft 364 kts 74°
2026-05-04 10:40 39.84048 -83.44482 13000 ft 366 kts 75°
2026-05-04 10:41 39.84708 -83.41290 13012 ft 362 kts 65°
2026-05-04 10:41 39.85856 -83.38389 13009 ft 359 kts 56°
2026-05-04 10:41 39.87136 -83.35669 13006 ft 343 kts 54°
2026-05-04 10:41 39.88381 -83.33105 12827 ft 329 kts 53°
2026-05-04 10:42 39.89598 -83.30628 12570 ft 320 kts 53°
2026-05-04 10:42 39.90781 -83.28227 12322 ft 310 kts 53°
2026-05-04 10:42 39.91921 -83.25918 12082 ft 304 kts 53°
2026-05-04 10:42 39.93065 -83.23610 11766 ft 304 kts 53°
2026-05-04 10:43 39.94234 -83.21275 11239 ft 308 kts 53°
2026-05-04 10:44 40.02320 -83.05750 7534 ft 283 kts 53°
2026-05-04 10:45 40.03222 -83.03571 6993 ft 277 kts 75°
2026-05-04 10:45 40.03137 -83.01118 6461 ft 270 kts 112°
2026-05-04 10:45 40.02183 -82.99088 6037 ft 257 kts 131°
2026-05-04 10:45 40.01133 -82.97240 5979 ft 252 kts 128°
2026-05-04 10:46 40.00268 -82.95210 5980 ft 262 kts 116°
2026-05-04 10:46 39.99712 -82.92918 5989 ft 267 kts 107°
2026-05-04 10:46 39.99251 -82.90567 5991 ft 269 kts 108°
2026-05-04 10:46 39.98708 -82.88231 5991 ft 270 kts 110°
2026-05-04 10:47 39.98129 -82.85906 5988 ft 269 kts 110°
2026-05-04 10:47 39.97575 -82.83610 5983 ft 259 kts 110°
2026-05-04 10:47 39.97059 -82.81439 5940 ft 243 kts 110°
2026-05-04 10:47 39.96565 -82.79371 5861 ft 235 kts 110°
2026-05-04 10:49 39.92801 -82.70888 5958 ft 142 kts 250°
2026-05-04 10:49 39.92432 -82.72093 5651 ft 152 kts 256°
2026-05-04 10:50 39.92325 -82.73514 5162 ft 162 kts 262°
2026-05-04 10:51 39.88854 -82.82197 2651 ft 113 kts 241°
2026-05-04 10:52 39.88462 -82.83060 2481 ft 110 kts 240°
2026-05-04 10:52 39.88003 -82.83833 2327 ft 109 kts 231°
2026-05-04 10:52 39.87461 -82.84541 2182 ft 108 kts 230°
2026-05-04 10:54 39.84093 -82.88969 1239 ft 107 kts 224°
2026-05-04 10:54 39.83576 -82.89653 1065 ft 107 kts 223°
2026-05-04 10:56 39.82050 -82.92348 739 ft 30 kts 315°
2026-05-04 10:56 39.82175 -82.92449 739 ft 21 kts 349°
2026-05-04 10:56 39.82262 -82.92482 739 ft 1 kts 323°
2026-05-04 10:57 39.82283 -82.92513 739 ft 12 kts 240°
2026-05-04 10:57 39.82228 -82.92542 739 ft 0 kts 170°